Location: Oshawa
(43.9000°N, 78.8670°W)
Time: 02:42:18
(UTC-04:00)

Daily predictions for brighter satellites

Satellite Brightness Start Highest point End
(mag) Time Altitude Azimuth Time Altitude Azimuth Time Altitude Azimuth
ATLAS 2AS CENTAUR R/B 3.9 02:54:39 44° NNE 02:54:39 44° NNE 03:00:01 10° NE
CZ-2D R/B 4.0 03:22:17 10° NNE 03:24:53 25° NE 03:24:53 25° NE
Lacrosse 5 4.1 03:36:01 20° ENE 03:36:01 20° ENE 03:37:51 10° ENE
SL-16 R/B 3.7 03:38:38 36° N 03:38:38 36° N 03:42:10 10° N
Cosmos 2227 Rocket 3.8 03:39:47 30° E 03:39:47 30° E 03:43:46 10° NE
Resurs 1-4 Rocket 3.6 03:41:03 10° NNE 03:44:13 34° NE 03:44:13 34° NE
Cosmos 2344 3.6 03:47:24 76° ESE 03:47:24 76° ESE 03:56:04 10° NE
Cosmos 2297 Rocket 3.8 03:47:53 27° ESE 03:47:53 27° ESE 03:52:33 10° NE
CENTAUR R/B 4.5 03:41:29 10° NNW 03:48:10 32° NE 03:55:20 10° E
NOSS 3-2 (C) 4.0 03:50:09 10° NW 03:57:37 77° NE 04:05:42 10° SE
Okean O Rocket 3.7 04:03:08 10° NE 04:06:39 23° E 04:06:39 23° E
Cosmos 2082 4.0 04:20:32 63° E 04:20:32 63° E 04:25:52 10° NNE
ARIANE 5 R/B 3.8 04:16:46 10° N 04:19:32 32° N 04:19:32 32° N
NOSS 3-4 (A) 3.4 04:22:27 83° SE 04:22:31 83° SE 04:29:06 10° NE
NOSS 3-4 (C) 3.4 04:22:32 82° SE 04:22:38 82° SE 04:29:13 10° NE
CZ-3A R/B 3.6 04:27:47 36° NNW 04:29:02 46° NNE 04:35:35 10° ESE
ADEOS II 4.3 04:35:37 10° NE 04:39:45 23° E 04:43:52 10° SE
BREEZE M DEB (TANK) 3.2 04:41:19 50° NE 04:41:19 50° NE 04:46:26 10° ENE
MOS 1-B 4.2 04:36:49 10° NNE 04:42:38 80° WNW 04:43:03 75° WSW
ATLAS 2AS CENTAUR R/B 4.3 04:42:05 22° NW 04:44:32 26° NNW 04:51:05 10° NNE
Lacrosse 5 rocket 3.4 04:45:22 22° NNW 04:45:22 22° NNW 04:48:30 10° NNE
BREEZE-M DEB (TANK) 3.7 04:47:30 48° SE 04:47:30 48° SE 04:49:53 10° ENE
ATLAS 5 CENTAUR R/B 2.8 04:48:47 47° S 04:48:47 47° S 04:53:40 10° SSE
Cosmos 1666 3.6 04:44:36 10° N 04:47:59 47° NE 04:47:59 47° NE
CZ-2C R/B 3.8 04:47:44 38° SSE 04:49:28 73° ENE 04:54:08 10° N
CZ-4B R/B 3.8 04:44:34 10° NNE 04:49:54 55° E 04:53:41 20° S
Tiangong 1 3.6 04:52:19 19° E 04:52:19 19° E 04:53:22 10° E
Meteor 1-19 Rocket 4.1 04:52:55 52° SSW 04:54:22 88° W 05:00:00 10° N
EXPRESS MD2 3.8 04:57:13 52° ENE 04:57:13 52° ENE 05:01:20 10° ESE
Cosmos 1727 Rocket 3.9 04:55:17 51° SW 04:56:53 71° W 05:03:14 10° N
CZ-4B R/B 3.6 04:52:57 10° NNE 04:57:19 59° E 04:59:04 35° SSE
Cosmos 2173 Rocket 4.3 04:53:03 10° N 04:59:07 66° E 05:05:13 10° SSE
Meteor 2-4 Rocket 3.9 04:58:05 24° S 05:01:44 79° E 05:07:41 10° NNE
Cosmos 292 Rocket 3.6 04:58:04 10° NNW 05:02:58 84° WSW 05:07:49 10° SSE
Cosmos 2298 Rocket 4.4 05:01:56 25° S 05:04:55 62° ESE 05:10:10 10° NNE
Cosmos 1459 Rocket 4.2 04:58:39 10° N 05:05:03 76° E 05:11:21 10° SSE
CZ-2D R/B 3.1 05:02:32 10° N 05:06:12 29° NW 05:06:12 29° NW
FALCON 9 R/B 4.4 05:02:41 16° S 05:07:29 32° SE 05:24:15 10° E
Cosmos 2058 Rocket 3.3 05:03:26 10° N 05:07:48 69° E 05:12:08 10° SSE
NOSS 3-2 (A) 4.3 05:08:52 38° WSW 05:09:04 39° WSW 05:16:21 10° S
SL-16 R/B 2.1 05:04:44 10° NNW 05:10:27 84° WSW 05:16:07 10° SSE
Meteor 1-23 Rocket 4.2 05:07:12 21° S 05:11:08 85° E 05:16:53 10° NNE
Okean 2 3.4 05:09:56 43° S 05:11:13 77° E 05:15:22 10° NNE
MOZ.5/SAFIR/RUBIN 5/SL-8 4.3 05:13:57 42° WNW 05:13:57 42° WNW 05:17:32 10° NNW
Meteor 2-9 Rocket 4.1 05:07:52 10° N 05:13:34 86° WSW 05:19:21 10° S
Okean-O 4.0 05:09:38 10° NNE 05:13:48 38° E 05:17:56 10° SSE
Lacrosse 5 2.2 05:15:13 44° WNW 05:16:08 50° NW 05:21:04 10° NE
Aureole 2 Rocket 2.5 05:13:40 10° NNW 05:17:09 67° ENE 05:20:16 10° SSE
Thor Agena Rocket 3.6 05:12:17 10° SSE 05:17:34 81° ENE 05:22:53 10° NNW
Cosmos 2150 Rocket 4.1 05:15:10 20° S 05:18:40 71° ESE 05:23:49 10° NNE
Cosmos 1025 Rocket 3.3 05:19:22 48° WNW 05:19:22 48° WNW 05:23:16 10° N
SL-16 R/B 4.4 05:23:44 13° NW 05:23:44 13° NW 05:24:38 10° NW
IRS-1C Rocket 4.1 05:16:49 10° N 05:22:03 63° WNW 05:24:27 32° SW
Cosmos 2227 Rocket 2.7 05:21:39 37° W 05:22:44 41° WNW 05:28:05 10° NNE
Resurs 1-4 Rocket 3.5 05:21:43 10° NNW 05:25:18 22° NW 05:25:18 22° NW
USA 215 4.0 05:23:22 10° S 05:28:50 28° SW 05:28:54 28° SW
Cosmos 2297 Rocket 2.5 05:29:44 34° WSW 05:31:38 47° WNW 05:37:07 10° NNE
ADEOS Rocket 3.2 05:27:35 10° NNE 05:34:47 86° WNW 05:41:12 10° SSW
Cosmos 1626 Rocket 4.3 05:32:49 10° S 05:37:04 54° E 05:41:20 10° NNE
Cosmos 1606 Rocket 4.2 05:35:08 10° NNW 05:38:52 33° W 05:38:52 33° W
CENTAUR R/B 3.1 05:31:56 10° NW 05:39:46 85° SW 05:48:08 10° SSE
Cosmos 1346 Rocket 3.2 05:39:36 38° W 05:40:07 40° WNW 05:43:56 10° N
USA 129 4.3 05:38:53 10° SE 05:40:19 20° ENE 05:41:39 10° NNE
Cosmos 2098 Rocket 3.0 05:36:24 10° N 05:40:22 89° E 05:45:28 10° S
Okean O Rocket 2.3 05:39:09 10° N 05:43:07 34° WNW 05:44:06 30° W
Cosmos 1898 Rocket 3.5 05:39:59 19° SSW 05:43:51 66° WNW 05:49:08 10° NNE
RESURS DK-1 3.5 05:44:50 25° WNW 05:45:16 26° NW 05:48:46 10° N
NOSS 2-2 (D) 4.1 05:43:18 12° SSW 05:46:56 56° ESE 05:51:35 10° NE
DELTA 2 R/B (1) 4.0 05:44:29 25° WSW 05:47:33 53° S 05:52:58 10° E
OPS 6432 4.2 05:46:15 29° SW 05:47:48 87° SE 05:50:52 10° NE
Cosmos 1726 Rocket 4.2 05:45:24 10° NNW 05:49:17 31° W 05:51:40 19° SW
CZ-4B DEB 4.4 05:46:58 10° N 05:52:14 49° WNW 05:57:24 10° SW
Cosmos 1937 Rocket 3.4 05:49:25 10° SSW 05:54:38 73° WNW 05:59:56 10° NNE
Cosmos 1603 3.7 05:52:17 10° NNW 05:58:04 90° SW 06:03:45 10° SSE
Cosmos 1602 Rocket 3.5 05:56:40 10° S 06:01:07 82° W 06:05:33 10° N
NOSS 2-2 (C) 3.6 05:58:15 11° SSW 06:02:16 80° ESE 06:07:06 10° NE
NOSS 2-2 (E) 3.6 05:59:45 12° SW 06:03:36 90° SW 06:08:35 10° NE
PSLV R/B 3.8 06:01:13 10° N 06:05:24 47° WNW 06:09:30 10° SW
Cosmos 972 Rocket 4.4 06:00:07 10° SSW 06:05:39 84° ESE 06:11:57 10° NNE
Cosmos 2263 Rocket 4.5 06:01:55 10° SSE 06:06:26 26° ESE 06:10:58 10° NE
Cosmos 1802 Rocket 4.3 06:03:16 10° NNW 06:08:59 41° W 06:14:39 10° SSW
Cosmos 2061 Rocket 4.5 06:03:23 10° NNW 06:09:07 38° W 06:14:53 10° SSW
SKYMED 2 4.5 06:05:24 10° SSE 06:09:37 53° ENE 06:13:51 10° N
Genesis I 3.3 06:08:54 10° SSW 06:12:53 82° SE 06:16:54 10° NE
Cosmos 2228 3.7 06:10:12 10° NNW 06:14:06 31° W 06:17:56 10° SSW
Meteor 1-31 Rocket 2.7 06:11:09 10° N 06:15:05 80° WNW 06:19:00 10° SSW
Cosmos 1725 Rocket 4.0 06:11:30 10° NNW 06:17:44 64° W 06:23:52 10° S
ADEOS II 2.3 06:14:40 10° N 06:19:43 48° WNW 06:24:44 10° SW
CZ-4B R/B 3.7 06:16:48 10° N 06:20:44 73° WNW 06:24:27 10° SSW
Cosmos 2084 Rocket 3.5 06:19:24 10° NW 06:23:15 71° NE 06:27:18 10° SE
Iridium 4 Rocket 4.3 06:19:23 10° SSE 06:24:02 50° E 06:28:20 10° NNE
BREEZE-M DEB (TANK) 2.1 06:22:06 11° WNW 06:24:29 49° SW 06:28:09 10° SE
Cosmos 1515 4.0 06:21:11 10° SSW 06:24:52 45° WNW 06:28:34 10° N
Cosmos 1812 Rocket 3.6 06:20:32 10° NNW 06:24:54 58° W 06:29:17 10° S
Lacrosse 5 rocket 3.8 06:23:04 10° NW 06:25:39 15° N 06:28:11 10° NE
Tiangong 1 1.2 06:24:12 14° W 06:26:39 59° S 06:29:39 10° ESE
CZ-4B R/B 4.4 06:25:57 10° NNW 06:30:05 23° WNW 06:34:17 10° WSW
SL-24 R/B 3.9 06:27:56 10° NNE 06:32:17 89° SE 06:36:07 10° SSW
Cosmos 468 4.5 06:30:45 10° NNW 06:35:57 67° WSW 06:41:08 10° S
Cosmos 1340 2.6 06:32:18 10° SSW 06:36:04 71° W 06:39:53 10° N
Cosmos 1953 4.3 06:38:37 10° N 06:42:20 35° ENE 06:46:02 10° SE
MOS 1 Rocket 3.9 06:40:32 10° N 06:45:03 41° WNW 06:49:48 10° SW
Radarsat Rocket 4.2 06:40:17 10° NNE 06:47:04 79° WNW 06:53:07 10° SSW
